This is the latest recevied weather packets stored in our database for station/object BV3BA-13. If no packets are shown the sender has not sent any weather packets the latest 10 day(s).
| Time | Temp. | Humidity | Pressure | Rain* | Wind** | Luminosity | Snow |
|---|---|---|---|---|---|---|---|
| 1777691224 | 26.67° C | 77% | 1009.4 hPa | 0 mm | - | - | - |
| 1777690641 | 26.67° C | 76% | 1009.4 hPa | 0 mm | - | - | - |
| 1777690023 | 26.67° C | 78% | 1009.5 hPa | 0 mm | - | - | - |
| 1777689423 | 26.67° C | 78% | 1009.6 hPa | 0 mm | - | - | - |
| 1777688824 | 26.11° C | 75% | 1009.6 hPa | 0 mm | - | - | - |
| 1777688226 | 26.67° C | 76% | 1009.7 hPa | 0 mm | - | - | - |
| 1777687624 | 26.11° C | 79% | 1009.8 hPa | 0 mm | - | - | - |
| 1777687024 | 25.56° C | 79% | 1010 hPa | 0 mm | - | - | - |
| 1777686424 | 25° C | 80% | 1010.1 hPa | 0 mm | - | - | - |
| 1777685823 | 25° C | 79% | 1010.2 hPa | 0 mm | - | - | - |
| 1777685224 | 24.44° C | 82% | 1010.2 hPa | 0 mm | - | - | - |
| 1777684624 | 25° C | 83% | 1010.2 hPa | 0 mm | - | - | - |
| 1777684023 | 24.44° C | 85% | 1010.3 hPa | 0 mm | - | - | - |
| 1777683423 | 23.89° C | 87% | 1010.4 hPa | 0 mm | - | - | - |
| 1777682824 | 24.44° C | 81% | 1010.4 hPa | 0 mm | - | - | - |
| 1777682224 | 23.89° C | 85% | 1010.4 hPa | 0 mm | - | - | - |
| 1777681624 | 23.89° C | 84% | 1010.3 hPa | 0 mm | - | - | - |
| 1777681024 | 23.89° C | 85% | 1010.3 hPa | 0 mm | - | - | - |
| 1777680424 | 23.89° C | 84% | 1010.2 hPa | 0 mm | - | - | - |
| 1777679823 | 23.89° C | 83% | 1010.2 hPa | 0 mm | - | - | - |
| 1777679224 | 23.89° C | 86% | 1010 hPa | 0 mm | - | - | - |
| 1777678623 | 23.33° C | 84% | 1010.1 hPa | 0 mm | - | - | - |
| 1777678024 | 23.33° C | 84% | 1010.1 hPa | 0 mm | - | - | - |
| 1777677424 | 23.33° C | 84% | 1010.1 hPa | 0 mm | - | - | - |
| 1777676823 | 23.33° C | 84% | 1010 hPa | 0 mm | - | - | - |
* Rain latest hour (hover to see other rain measurements)
** Current wind speed in m/s (hover to see current wind gust speed)